Terminal Aerodrome Forecast
Issued by NWS

Home | Current Version | Previous Version | Text Only | Print | Product List | Glossary On
Versions: 1 2 3 4 5 6 7 8 9 10 11 12 13 14 15 16 17 18 19 20 21 22 23 24 25 26 27 28 29 30
000
FTUS41 KBUF 280300 AAA
TAFJHW
TAF AMD
KJHW 280312Z 2803/2824 34004KT P6SM BKN050
     FM280400 32004KT P6SM SCT200
     FM281700 29005KT P6SM FEW250
     FM282200 25004KT P6SM FEW250
      AMD LTD TO CLD VIS AND WIND=

USA.gov is the U.S. government's official web portal to all federal, state and local government web resources and services.